BAW78H EGLL-LOWW

Flight info

Callsign BAW78H
Flight time 2h 19m
Altitude 37000
Route DCT BPK Q295 BRAIN M197 REDFA L620 TACHA DCT NOMKA DCT OMELO DCT EVIKU DCT BITSI DCT MIKOV DCT
Aircraft A320/M-SDE3FGIJ1KRWXY/S

Departure

Time 2026-05-06 18:04
Airport London Heathrow Airport (EGLL)

Arrival

Time 2026-05-06 20:24
Airport Vienna International Airport (LOWW)
Time Latitude Longitude Altitude Speed Heading
2026-05-06 17:24 51.46853 -0.45831 87 ft 0 kts 360°
2026-05-06 17:53 51.46839 -0.45831 90 ft 4 kts 358°
2026-05-06 17:54 51.46812 -0.45829 90 ft 4 kts 354°
2026-05-06 17:54 51.46786 -0.45824 88 ft 4 kts 348°
2026-05-06 17:54 51.46760 -0.45811 88 ft 4 kts 324°
2026-05-06 17:54 51.46748 -0.45788 87 ft 1 kts 270°
2026-05-06 17:55 51.46748 -0.45781 90 ft 0 kts 270°
2026-05-06 17:58 51.46748 -0.45795 87 ft 2 kts 269°
2026-05-06 17:58 51.46748 -0.45830 88 ft 4 kts 269°
2026-05-06 17:58 51.46747 -0.45886 87 ft 6 kts 269°
2026-05-06 17:58 51.46736 -0.45957 87 ft 7 kts 233°
2026-05-06 17:59 51.46686 -0.45989 87 ft 9 kts 205°
2026-05-06 17:59 51.46660 -0.46076 90 ft 10 kts 267°
2026-05-06 17:59 51.46659 -0.46195 89 ft 11 kts 270°
2026-05-06 17:59 51.46658 -0.46332 90 ft 13 kts 269°
2026-05-06 18:00 51.46658 -0.46488 89 ft 15 kts 269°
2026-05-06 18:00 51.46657 -0.46663 90 ft 17 kts 270°
2026-05-06 18:00 51.46656 -0.46857 90 ft 19 kts 270°
2026-05-06 18:00 51.46656 -0.47076 87 ft 21 kts 269°
2026-05-06 18:01 51.46656 -0.47320 87 ft 23 kts 270°
2026-05-06 18:01 51.46654 -0.47571 86 ft 18 kts 270°
2026-05-06 18:01 51.46653 -0.47758 87 ft 18 kts 270°
2026-05-06 18:01 51.46653 -0.47906 87 ft 11 kts 270°
2026-05-06 18:02 51.46652 -0.48016 87 ft 8 kts 269°
2026-05-06 18:02 51.46652 -0.48097 87 ft 8 kts 270°
2026-05-06 18:02 51.46645 -0.48186 91 ft 7 kts 241°
2026-05-06 18:02 51.46605 -0.48216 87 ft 7 kts 184°
2026-05-06 18:03 51.46553 -0.48214 88 ft 8 kts 180°
2026-05-06 18:03 51.46500 -0.48213 88 ft 5 kts 174°
2026-05-06 18:03 51.46480 -0.48166 89 ft 7 kts 91°
2026-05-06 18:03 51.46480 -0.47943 87 ft 48 kts 89°
2026-05-06 18:04 51.46484 -0.47066 89 ft 107 kts 89°
2026-05-06 18:04 51.46488 -0.45615 87 ft 152 kts 90°
2026-05-06 18:04 51.46501 -0.43895 505 ft 155 kts 86°
2026-05-06 18:04 51.46533 -0.42163 1138 ft 155 kts 77°
2026-05-06 18:05 51.46944 -0.40609 1681 ft 152 kts 47°
2026-05-06 18:05 51.47633 -0.39319 2216 ft 153 kts 47°
2026-05-06 18:05 51.48314 -0.38027 2726 ft 153 kts 47°
2026-05-06 18:05 51.49003 -0.36710 3215 ft 155 kts 47°
2026-05-06 18:06 51.49732 -0.35315 3461 ft 173 kts 47°
2026-05-06 18:06 51.50558 -0.33735 3668 ft 196 kts 48°
2026-05-06 18:06 51.51491 -0.31948 3915 ft 221 kts 48°
2026-05-06 18:06 51.52371 -0.29775 4258 ft 247 kts 67°
2026-05-06 18:07 51.52959 -0.27077 4816 ft 262 kts 70°
2026-05-06 18:07 51.53567 -0.24288 5599 ft 268 kts 66°
2026-05-06 18:07 51.54577 -0.21757 5924 ft 269 kts 45°
2026-05-06 18:07 51.56092 -0.20033 6002 ft 268 kts 23°
2026-05-06 18:08 51.57826 -0.18936 6053 ft 268 kts 22°
2026-05-06 18:08 51.59575 -0.17868 6203 ft 271 kts 16°
2026-05-06 18:08 51.61385 -0.17015 7055 ft 272 kts 17°
2026-05-06 18:08 51.63187 -0.16156 7869 ft 274 kts 16°
2026-05-06 18:09 51.65054 -0.15274 8689 ft 278 kts 15°
2026-05-06 18:09 51.66899 -0.14410 9484 ft 281 kts 14°
2026-05-06 18:09 51.68786 -0.13533 10240 ft 284 kts 14°
2026-05-06 18:09 51.70735 -0.12496 10499 ft 307 kts 22°
2026-05-06 18:10 51.72637 -0.10629 10654 ft 332 kts 38°
2026-05-06 18:10 51.74234 -0.07832 11104 ft 345 kts 54°
2026-05-06 18:10 51.75333 -0.04363 11708 ft 352 kts 70°
2026-05-06 18:10 51.75847 -0.00481 12340 ft 358 kts 81°
2026-05-06 18:11 51.76184 0.03541 12960 ft 362 kts 81°
2026-05-06 18:11 51.76517 0.07594 13613 ft 365 kts 81°
2026-05-06 18:11 51.76843 0.11650 14198 ft 369 kts 81°
2026-05-06 18:11 51.77177 0.15812 14787 ft 372 kts 81°
2026-05-06 18:12 51.77513 0.19988 15359 ft 375 kts 81°
2026-05-06 18:12 51.77846 0.24132 15913 ft 378 kts 82°
2026-05-06 18:12 51.78191 0.28411 16483 ft 381 kts 82°
2026-05-06 18:12 51.78539 0.32686 17043 ft 385 kts 82°
2026-05-06 18:13 51.78891 0.36982 17631 ft 388 kts 82°
2026-05-06 18:13 51.79238 0.41268 18201 ft 391 kts 82°
2026-05-06 18:13 51.79588 0.45644 18730 ft 394 kts 82°
2026-05-06 18:13 51.79936 0.50056 19243 ft 398 kts 82°
2026-05-06 18:14 51.80284 0.54525 19770 ft 401 kts 82°
2026-05-06 18:14 51.80633 0.59012 20287 ft 405 kts 82°
2026-05-06 18:14 51.80986 0.63540 20805 ft 408 kts 82°
2026-05-06 18:14 51.81553 0.68056 21279 ft 411 kts 75°
2026-05-06 18:15 51.82258 0.72576 21760 ft 415 kts 75°
2026-05-06 18:15 51.82953 0.77051 22220 ft 418 kts 75°
2026-05-06 18:15 51.83660 0.81629 22673 ft 421 kts 75°
2026-05-06 18:15 51.84413 0.86219 23110 ft 424 kts 74°
2026-05-06 18:16 51.85238 0.90832 23553 ft 428 kts 73°
2026-05-06 18:16 51.86102 0.95460 23915 ft 431 kts 72°
2026-05-06 18:16 51.86985 1.00109 24288 ft 433 kts 72°
2026-05-06 18:16 51.87868 1.04781 24664 ft 435 kts 73°
2026-05-06 18:17 51.88739 1.09481 25035 ft 437 kts 73°
2026-05-06 18:17 51.89602 1.14224 25402 ft 439 kts 73°
2026-05-06 18:17 51.90458 1.18997 25770 ft 441 kts 73°
2026-05-06 18:17 51.91311 1.23789 26124 ft 443 kts 73°
2026-05-06 18:18 51.92160 1.28588 26471 ft 445 kts 73°
2026-05-06 18:18 51.93015 1.33425 26820 ft 447 kts 73°
2026-05-06 18:18 51.93870 1.38265 27167 ft 449 kts 73°
2026-05-06 18:18 51.94736 1.43151 27510 ft 451 kts 73°
2026-05-06 18:19 51.95597 1.48000 27848 ft 453 kts 73°
2026-05-06 18:19 51.96470 1.52923 28190 ft 455 kts 73°
2026-05-06 18:19 51.97345 1.57882 28519 ft 457 kts 73°
2026-05-06 18:19 51.98213 1.62842 28844 ft 458 kts 73°
2026-05-06 18:20 51.99082 1.67810 29295 ft 457 kts 73°
2026-05-06 18:20 51.99924 1.72787 29762 ft 456 kts 75°
2026-05-06 18:20 52.00720 1.77779 30200 ft 455 kts 75°
2026-05-06 18:20 52.01485 1.82769 30598 ft 454 kts 76°
2026-05-06 18:21 52.02232 1.87749 30990 ft 454 kts 76°
2026-05-06 18:21 52.02975 1.92724 31385 ft 453 kts 76°
2026-05-06 18:21 52.03713 1.97628 31782 ft 452 kts 76°
2026-05-06 18:21 52.04476 2.02633 32192 ft 451 kts 76°
2026-05-06 18:22 52.05226 2.07539 32589 ft 451 kts 76°
2026-05-06 18:22 52.05481 2.09205 32717 ft 450 kts 76°
2026-05-06 18:22 52.06742 2.17414 33384 ft 449 kts 76°
2026-05-06 18:22 52.07496 2.22345 33772 ft 449 kts 76°
2026-05-06 18:23 52.08244 2.27280 34126 ft 448 kts 76°
2026-05-06 18:23 52.08987 2.32200 34417 ft 448 kts 76°
2026-05-06 18:23 52.09726 2.37126 34686 ft 449 kts 76°
2026-05-06 18:23 52.10464 2.42076 34907 ft 450 kts 76°
2026-05-06 18:24 52.11963 2.51905 34975 ft 450 kts 74°
2026-05-06 18:24 52.13804 2.61769 34978 ft 460 kts 71°
2026-05-06 18:25 52.15814 2.71750 34974 ft 463 kts 71°
2026-05-06 18:25 52.17763 2.81769 34967 ft 464 kts 72°
2026-05-06 18:26 52.19650 2.91844 34967 ft 464 kts 73°
2026-05-06 18:26 52.21508 3.01863 34969 ft 465 kts 73°
2026-05-06 18:27 52.23377 3.11967 34969 ft 465 kts 73°
2026-05-06 18:27 52.24814 3.20432 34963 ft 465 kts 79°
2026-05-06 18:28 52.25198 3.27437 34958 ft 464 kts 91°
2026-05-06 18:28 52.24936 3.32682 34958 ft 463 kts 98°
2026-05-06 18:28 52.24087 3.43127 34953 ft 464 kts 98°
2026-05-06 18:29 52.23249 3.53497 34950 ft 464 kts 98°
2026-05-06 18:29 52.22404 3.63964 34949 ft 464 kts 98°
2026-05-06 18:30 52.21541 3.74396 34949 ft 465 kts 98°
2026-05-06 18:30 52.20659 3.84851 34949 ft 465 kts 98°
2026-05-06 18:31 52.19771 3.95303 34948 ft 465 kts 98°
2026-05-06 18:31 52.18884 4.05701 34951 ft 465 kts 98°
2026-05-06 18:32 52.17981 4.16117 34950 ft 464 kts 99°
2026-05-06 18:32 52.17221 4.24775 34956 ft 464 kts 99°
2026-05-06 18:33 52.16197 4.36399 34959 ft 464 kts 99°
2026-05-06 18:33 52.15280 4.46779 34967 ft 463 kts 99°
2026-05-06 18:34 52.14658 4.53715 34964 ft 462 kts 99°
2026-05-06 18:34 52.13575 4.65584 34962 ft 461 kts 99°
2026-05-06 18:35 52.12624 4.75909 34961 ft 461 kts 99°
2026-05-06 18:35 52.11670 4.86234 34960 ft 460 kts 99°
2026-05-06 18:36 52.10704 4.96537 34953 ft 460 kts 99°
2026-05-06 18:36 52.09728 5.06820 34949 ft 460 kts 100°
2026-05-06 18:37 52.08746 5.17123 34945 ft 460 kts 100°
2026-05-06 18:37 52.07761 5.27365 34943 ft 460 kts 100°
2026-05-06 18:38 52.06752 5.37692 34938 ft 460 kts 100°
2026-05-06 18:38 52.05754 5.47890 34937 ft 459 kts 100°
2026-05-06 18:39 52.04741 5.58153 34935 ft 459 kts 100°
2026-05-06 18:40 52.03198 5.73513 34930 ft 459 kts 101°
2026-05-06 18:40 52.02160 5.83745 34930 ft 459 kts 101°
2026-05-06 18:41 52.01116 5.93983 34929 ft 459 kts 101°
2026-05-06 18:41 52.00065 6.04140 34930 ft 459 kts 101°
2026-05-06 18:42 51.98999 6.14350 34933 ft 459 kts 101°
2026-05-06 18:42 51.98089 6.23035 34929 ft 459 kts 101°
2026-05-06 18:43 51.97013 6.33238 34930 ft 459 kts 101°
2026-05-06 18:43 51.95928 6.43450 34923 ft 459 kts 101°
2026-05-06 18:44 51.94825 6.53661 34915 ft 460 kts 102°
2026-05-06 18:44 51.93707 6.63861 34909 ft 460 kts 102°
2026-05-06 18:45 51.92591 6.74065 34908 ft 460 kts 102°
2026-05-06 18:45 51.91475 6.84188 34912 ft 459 kts 102°
2026-05-06 18:46 51.90343 6.94371 34906 ft 459 kts 102°
2026-05-06 18:46 51.89202 7.04561 34908 ft 459 kts 102°
2026-05-06 18:47 51.88059 7.14710 34900 ft 459 kts 102°
2026-05-06 18:47 51.86898 7.24882 34910 ft 459 kts 102°
2026-05-06 18:48 51.85724 7.35043 34901 ft 459 kts 102°
2026-05-06 18:48 51.84551 7.45197 34900 ft 459 kts 102°
2026-05-06 18:49 51.83370 7.55333 34897 ft 459 kts 103°
2026-05-06 18:49 51.82175 7.65470 34890 ft 459 kts 103°
2026-05-06 18:50 51.80982 7.75535 34889 ft 459 kts 103°
2026-05-06 18:50 51.79767 7.85667 34887 ft 459 kts 103°
2026-05-06 18:51 51.78544 7.95803 34879 ft 460 kts 103°
2026-05-06 18:51 51.77321 8.05942 34877 ft 460 kts 103°
2026-05-06 18:52 51.76082 8.16072 34881 ft 460 kts 103°
2026-05-06 18:52 51.74821 8.26214 34876 ft 460 kts 103°
2026-05-06 18:53 51.73566 8.36275 34870 ft 460 kts 104°
2026-05-06 18:53 51.72301 8.46408 34868 ft 460 kts 104°
2026-05-06 18:54 51.71027 8.56542 34867 ft 460 kts 104°
2026-05-06 18:54 51.69737 8.66672 34871 ft 460 kts 104°
2026-05-06 18:55 51.68457 8.76725 34869 ft 460 kts 104°
2026-05-06 18:55 51.67165 8.86831 34865 ft 460 kts 104°
2026-05-06 18:56 51.65853 8.96940 34857 ft 460 kts 104°
2026-05-06 18:56 51.64525 9.07037 34849 ft 460 kts 104°
2026-05-06 18:57 51.63188 9.17118 34837 ft 461 kts 105°
2026-05-06 18:57 51.61849 9.27207 34833 ft 461 kts 105°
2026-05-06 18:58 51.60512 9.37233 34829 ft 461 kts 105°
2026-05-06 18:58 51.59155 9.47325 34828 ft 461 kts 105°
2026-05-06 18:59 51.57791 9.57401 34826 ft 461 kts 105°
2026-05-06 18:59 51.56416 9.67488 34822 ft 461 kts 105°
2026-05-06 19:00 51.55031 9.77572 34819 ft 462 kts 105°
2026-05-06 19:00 51.53642 9.87630 34811 ft 462 kts 105°
2026-05-06 19:01 51.52245 9.97701 34806 ft 462 kts 105°
2026-05-06 19:01 51.50834 10.07778 34804 ft 462 kts 105°
2026-05-06 19:02 51.49423 10.17768 34793 ft 462 kts 106°
2026-05-06 19:02 51.47982 10.27912 34794 ft 462 kts 106°
2026-05-06 19:03 51.46552 10.37903 34801 ft 463 kts 106°
2026-05-06 19:03 51.45089 10.48033 34789 ft 463 kts 107°
2026-05-06 19:04 51.43592 10.58024 34791 ft 463 kts 108°
2026-05-06 19:04 51.41996 10.68024 34795 ft 464 kts 108°
2026-05-06 19:05 51.40371 10.78062 34788 ft 465 kts 108°
2026-05-06 19:05 51.38755 10.88092 34786 ft 465 kts 108°
2026-05-06 19:06 51.37138 10.98126 34786 ft 466 kts 109°
2026-05-06 19:06 51.35503 11.08174 34791 ft 466 kts 109°
2026-05-06 19:07 51.33876 11.18160 34787 ft 467 kts 109°
2026-05-06 19:07 51.32224 11.28231 34785 ft 468 kts 109°
2026-05-06 19:08 51.30552 11.38315 34786 ft 469 kts 109°
2026-05-06 19:08 51.28879 11.48403 34790 ft 469 kts 109°
2026-05-06 19:09 51.27207 11.58418 34788 ft 469 kts 109°
2026-05-06 19:09 51.25508 11.68500 34791 ft 470 kts 110°
2026-05-06 19:10 51.24363 11.75257 34790 ft 470 kts 110°
2026-05-06 19:10 51.22083 11.88684 34796 ft 470 kts 110°
2026-05-06 19:11 51.20368 11.98714 34797 ft 471 kts 110°
2026-05-06 19:11 51.18634 12.08790 34799 ft 471 kts 110°
2026-05-06 19:12 51.16892 12.18871 34796 ft 471 kts 110°
2026-05-06 19:12 51.15130 12.28952 34796 ft 471 kts 110°
2026-05-06 19:13 51.13666 12.37306 34802 ft 471 kts 110°
2026-05-06 19:13 51.11608 12.49005 34805 ft 472 kts 110°
2026-05-06 19:14 51.10117 12.57414 34809 ft 472 kts 111°
2026-05-06 19:14 51.08324 12.67471 34806 ft 472 kts 111°
2026-05-06 19:15 51.06539 12.77474 34801 ft 472 kts 111°
2026-05-06 19:15 51.04731 12.87548 34802 ft 472 kts 111°
2026-05-06 19:16 51.02922 12.97537 34805 ft 472 kts 111°
2026-05-06 19:16 51.01100 13.07545 34803 ft 471 kts 111°
2026-05-06 19:17 50.99272 13.17539 34799 ft 470 kts 111°
2026-05-06 19:17 50.97437 13.27506 34804 ft 470 kts 111°
2026-05-06 19:18 50.95604 13.37450 34800 ft 469 kts 111°
2026-05-06 19:18 50.93778 13.47313 34799 ft 468 kts 111°
2026-05-06 19:19 50.91924 13.57237 34798 ft 468 kts 111°
2026-05-06 19:19 50.90061 13.67116 34806 ft 467 kts 111°
2026-05-06 19:20 50.88199 13.76978 34794 ft 467 kts 112°
2026-05-06 19:20 50.86338 13.86767 34793 ft 467 kts 112°
2026-05-06 19:21 50.84206 13.96418 34788 ft 460 kts 122°
2026-05-06 19:21 50.80615 14.04575 34782 ft 446 kts 140°
2026-05-06 19:22 50.76088 14.11209 34772 ft 443 kts 143°
2026-05-06 19:22 50.71536 14.17763 34777 ft 444 kts 143°
2026-05-06 19:23 50.66999 14.24305 34767 ft 444 kts 143°
2026-05-06 19:23 50.62428 14.30856 34773 ft 444 kts 143°
2026-05-06 19:24 50.57843 14.37410 34781 ft 444 kts 143°
2026-05-06 19:24 50.53266 14.43924 34775 ft 444 kts 143°
2026-05-06 19:25 50.48678 14.50443 34781 ft 443 kts 144°
2026-05-06 19:25 50.44116 14.56960 34785 ft 444 kts 142°
2026-05-06 19:26 50.39698 14.63667 34782 ft 445 kts 141°
2026-05-06 19:26 50.35294 14.70478 34779 ft 444 kts 141°
2026-05-06 19:27 50.30824 14.77299 34775 ft 444 kts 142°
2026-05-06 19:27 50.26411 14.83931 34776 ft 444 kts 142°
2026-05-06 19:28 50.21949 14.90600 34772 ft 444 kts 142°
2026-05-06 19:28 50.17513 14.97241 34771 ft 444 kts 142°
2026-05-06 19:29 50.13046 15.03921 34761 ft 445 kts 142°
2026-05-06 19:29 50.08576 15.10585 34761 ft 445 kts 142°
2026-05-06 19:30 50.04093 15.17245 34762 ft 445 kts 142°
2026-05-06 19:30 49.99606 15.23903 34769 ft 446 kts 143°
2026-05-06 19:31 49.95105 15.30561 34765 ft 446 kts 143°
2026-05-06 19:31 49.88358 15.40500 34771 ft 446 kts 143°
2026-05-06 19:32 49.83871 15.47080 34771 ft 446 kts 143°
2026-05-06 19:32 49.79356 15.53687 34770 ft 445 kts 144°
2026-05-06 19:33 49.74850 15.60266 34768 ft 445 kts 144°
2026-05-06 19:33 49.70343 15.66828 34768 ft 445 kts 144°
2026-05-06 19:34 49.65832 15.73378 34765 ft 445 kts 144°
2026-05-06 19:34 49.61325 15.79908 34762 ft 445 kts 144°
2026-05-06 19:35 49.56869 15.86544 34768 ft 450 kts 138°
2026-05-06 19:35 49.52925 15.94076 34779 ft 451 kts 135°
2026-05-06 19:36 49.49062 16.01604 34500 ft 450 kts 135°
2026-05-06 19:36 49.47099 16.05444 33826 ft 452 kts 136°
2026-05-06 19:36 49.45164 16.09270 33055 ft 453 kts 135°
2026-05-06 19:37 49.43248 16.13049 32267 ft 455 kts 135°
2026-05-06 19:37 49.41286 16.16875 31548 ft 454 kts 135°
2026-05-06 19:37 49.39327 16.20659 31000 ft 450 kts 135°
2026-05-06 19:37 49.38007 16.23192 30639 ft 448 kts 135°
2026-05-06 19:38 49.35438 16.28086 29936 ft 443 kts 135°
2026-05-06 19:38 49.33504 16.31743 29335 ft 439 kts 135°
2026-05-06 19:38 49.31576 16.35369 28751 ft 435 kts 135°
2026-05-06 19:38 49.29673 16.38936 28187 ft 431 kts 135°
2026-05-06 19:39 49.27773 16.42487 27660 ft 427 kts 135°
2026-05-06 19:39 49.25910 16.45969 27297 ft 415 kts 135°
2026-05-06 19:39 49.24123 16.49311 26766 ft 408 kts 136°
2026-05-06 19:39 49.22127 16.52257 26376 ft 391 kts 151°
2026-05-06 19:40 49.21363 16.53026 26234 ft 386 kts 156°
2026-05-06 19:40 49.17269 16.55032 25540 ft 366 kts 178°
2026-05-06 19:40 49.14749 16.55485 25124 ft 364 kts 178°
2026-05-06 19:40 49.12240 16.55940 24743 ft 362 kts 178°
2026-05-06 19:41 49.09751 16.56391 24294 ft 359 kts 178°
2026-05-06 19:41 49.07275 16.56842 23837 ft 356 kts 178°
2026-05-06 19:41 49.04820 16.57290 23380 ft 354 kts 177°
2026-05-06 19:41 49.02387 16.57734 22841 ft 351 kts 177°
2026-05-06 19:42 48.99976 16.58176 22289 ft 348 kts 177°
2026-05-06 19:42 48.97586 16.58613 21506 ft 343 kts 177°
2026-05-06 19:42 48.95234 16.59044 20667 ft 339 kts 177°
2026-05-06 19:42 48.92900 16.59473 19849 ft 336 kts 177°
2026-05-06 19:43 48.90570 16.59901 19298 ft 337 kts 177°
2026-05-06 19:43 48.88245 16.60329 18870 ft 335 kts 177°
2026-05-06 19:43 48.85944 16.60750 18445 ft 333 kts 177°
2026-05-06 19:43 48.83675 16.61160 18019 ft 331 kts 177°
2026-05-06 19:44 48.81363 16.61577 17535 ft 330 kts 177°
2026-05-06 19:44 48.79121 16.61978 17073 ft 328 kts 176°
2026-05-06 19:44 48.76846 16.62619 16614 ft 327 kts 171°
2026-05-06 19:44 48.74658 16.63342 16178 ft 325 kts 171°
2026-05-06 19:45 48.72455 16.64071 15798 ft 322 kts 171°
2026-05-06 19:45 48.70259 16.64795 15553 ft 323 kts 171°
2026-05-06 19:45 48.68048 16.65521 15301 ft 329 kts 171°
2026-05-06 19:45 48.65789 16.66258 15056 ft 333 kts 171°
2026-05-06 19:46 48.63544 16.66996 14831 ft 326 kts 171°
2026-05-06 19:46 48.61370 16.67715 14748 ft 312 kts 171°
2026-05-06 19:46 48.59294 16.68403 14753 ft 297 kts 171°
2026-05-06 19:46 48.57321 16.69045 14756 ft 282 kts 174°
2026-05-06 19:47 48.55443 16.69018 14755 ft 263 kts 195°
2026-05-06 19:47 48.53804 16.67982 14756 ft 259 kts 215°
2026-05-06 19:47 48.52523 16.66091 14762 ft 260 kts 234°
2026-05-06 19:47 48.51792 16.63589 14761 ft 265 kts 255°
2026-05-06 19:48 48.51742 16.60785 14761 ft 273 kts 276°
2026-05-06 19:48 48.52443 16.58090 14760 ft 283 kts 299°
2026-05-06 19:48 48.53859 16.55972 14752 ft 294 kts 324°
2026-05-06 19:48 48.55787 16.54832 14761 ft 302 kts 342°
2026-05-06 19:49 48.57845 16.54097 14758 ft 303 kts 343°
2026-05-06 19:49 48.59905 16.53432 14757 ft 304 kts 344°
2026-05-06 19:49 48.61980 16.52786 14764 ft 304 kts 344°
2026-05-06 19:49 48.64065 16.52255 14754 ft 306 kts 356°
2026-05-06 19:50 48.66160 16.52840 14757 ft 311 kts 24°
2026-05-06 19:50 48.67891 16.54740 14615 ft 308 kts 52°
2026-05-06 19:50 48.68863 16.57551 14313 ft 300 kts 81°
2026-05-06 19:50 48.68945 16.60628 13991 ft 289 kts 106°
2026-05-06 19:51 48.68217 16.63367 13768 ft 275 kts 130°
2026-05-06 19:51 48.66878 16.65373 13759 ft 269 kts 153°
2026-05-06 19:51 48.65206 16.66466 13760 ft 264 kts 168°
2026-05-06 19:51 48.63426 16.67156 13753 ft 264 kts 171°
2026-05-06 19:52 48.61630 16.67745 13760 ft 264 kts 172°
2026-05-06 19:52 48.59847 16.68300 13757 ft 263 kts 172°
2026-05-06 19:52 48.58040 16.68859 13761 ft 263 kts 172°
2026-05-06 19:52 48.56272 16.69142 13759 ft 257 kts 189°
2026-05-06 19:53 48.54591 16.68332 13756 ft 254 kts 212°
2026-05-06 19:53 48.53316 16.66514 13764 ft 256 kts 236°
2026-05-06 19:53 48.52681 16.63991 13759 ft 263 kts 259°
2026-05-06 19:53 48.52861 16.61223 13759 ft 273 kts 285°
2026-05-06 19:54 48.53913 16.58794 13764 ft 286 kts 314°
2026-05-06 19:54 48.55686 16.57358 13761 ft 297 kts 342°
2026-05-06 19:54 48.57711 16.56659 13753 ft 299 kts 344°
2026-05-06 19:54 48.59741 16.56001 13747 ft 298 kts 344°
2026-05-06 19:55 48.61766 16.55353 13473 ft 296 kts 344°
2026-05-06 19:55 48.63104 16.54955 13258 ft 296 kts 349°
2026-05-06 19:55 48.65145 16.55265 12961 ft 298 kts 21°
2026-05-06 19:55 48.66808 16.57044 12626 ft 295 kts 54°
2026-05-06 19:56 48.67647 16.59798 12295 ft 286 kts 86°
2026-05-06 19:56 48.67493 16.62714 11957 ft 275 kts 115°
2026-05-06 19:56 48.66507 16.65088 11633 ft 263 kts 142°
2026-05-06 19:56 48.64987 16.66495 11308 ft 254 kts 166°
2026-05-06 19:57 48.63281 16.67170 10978 ft 253 kts 171°
2026-05-06 19:57 48.61565 16.67740 10672 ft 252 kts 172°
2026-05-06 19:57 48.59849 16.68282 10396 ft 251 kts 172°
2026-05-06 19:57 48.58140 16.68821 10113 ft 250 kts 171°
2026-05-06 19:58 48.56432 16.69373 9624 ft 258 kts 170°
2026-05-06 19:58 48.54631 16.70000 8960 ft 270 kts 169°
2026-05-06 19:58 48.52816 16.70660 8555 ft 272 kts 169°
2026-05-06 19:58 48.50979 16.71341 8210 ft 271 kts 169°
2026-05-06 19:59 48.49156 16.72020 7991 ft 269 kts 169°
2026-05-06 19:59 48.47327 16.72702 7984 ft 271 kts 169°
2026-05-06 19:59 48.45523 16.73370 7963 ft 261 kts 169°
2026-05-06 19:59 48.43792 16.74008 7842 ft 252 kts 169°
2026-05-06 20:00 48.42113 16.74622 7700 ft 244 kts 170°
2026-05-06 20:00 48.40566 16.75186 7590 ft 239 kts 170°
2026-05-06 20:00 48.38954 16.75773 7454 ft 237 kts 170°
2026-05-06 20:00 48.37353 16.76354 7340 ft 236 kts 170°
2026-05-06 20:01 48.35755 16.76931 7228 ft 235 kts 171°
2026-05-06 20:01 48.34189 16.77496 7093 ft 226 kts 171°
2026-05-06 20:01 48.32700 16.78034 6980 ft 219 kts 171°
2026-05-06 20:01 48.31229 16.78573 6846 ft 217 kts 171°
2026-05-06 20:02 48.29764 16.79117 6668 ft 215 kts 171°
2026-05-06 20:02 48.28315 16.79661 6504 ft 215 kts 171°
2026-05-06 20:02 48.26868 16.80211 6331 ft 214 kts 171°
2026-05-06 20:02 48.25430 16.80764 6166 ft 213 kts 171°
2026-05-06 20:03 48.23998 16.81322 6057 ft 212 kts 171°
2026-05-06 20:03 48.22570 16.81845 6000 ft 209 kts 178°
2026-05-06 20:03 48.21159 16.81655 5998 ft 203 kts 204°
2026-05-06 20:03 48.20007 16.80494 6003 ft 201 kts 230°
2026-05-06 20:04 48.19372 16.78630 6002 ft 205 kts 255°
2026-05-06 20:04 48.19423 16.76476 6008 ft 215 kts 283°
2026-05-06 20:04 48.19992 16.74384 6007 ft 218 kts 287°
2026-05-06 20:04 48.20592 16.72286 6005 ft 219 kts 289°
2026-05-06 20:05 48.21325 16.70295 6005 ft 222 kts 299°
2026-05-06 20:05 48.22298 16.68470 6008 ft 225 kts 309°
2026-05-06 20:05 48.23473 16.66894 6004 ft 228 kts 318°
2026-05-06 20:05 48.24833 16.65623 6004 ft 231 kts 329°
2026-05-06 20:06 48.26338 16.64721 6002 ft 235 kts 339°
2026-05-06 20:06 48.27921 16.64064 6004 ft 236 kts 340°
2026-05-06 20:06 48.29503 16.63402 6003 ft 235 kts 340°
2026-05-06 20:06 48.31080 16.62739 5999 ft 234 kts 340°
2026-05-06 20:07 48.32647 16.62078 6003 ft 234 kts 340°
2026-05-06 20:07 48.34218 16.61416 6000 ft 234 kts 340°
2026-05-06 20:07 48.35767 16.60762 5993 ft 234 kts 340°
2026-05-06 20:07 48.37330 16.60102 5991 ft 233 kts 340°
2026-05-06 20:08 48.38897 16.59474 5989 ft 234 kts 347°
2026-05-06 20:08 48.40520 16.59705 5993 ft 240 kts 18°
2026-05-06 20:08 48.42058 16.60742 5989 ft 243 kts 24°
2026-05-06 20:08 48.43569 16.61914 5990 ft 244 kts 25°
2026-05-06 20:09 48.45073 16.63102 5986 ft 244 kts 25°
2026-05-06 20:09 48.46586 16.64295 5987 ft 244 kts 25°
2026-05-06 20:09 48.48088 16.65483 5983 ft 245 kts 26°
2026-05-06 20:09 48.49585 16.66656 5978 ft 245 kts 26°
2026-05-06 20:10 48.51103 16.67839 5988 ft 244 kts 26°
2026-05-06 20:10 48.52613 16.69012 5983 ft 244 kts 26°
2026-05-06 20:10 48.54140 16.70196 5983 ft 246 kts 24°
2026-05-06 20:10 48.55758 16.70850 5907 ft 239 kts 354°
2026-05-06 20:11 48.57364 16.70371 5733 ft 235 kts 338°
2026-05-06 20:11 48.58804 16.69314 5554 ft 226 kts 311°
2026-05-06 20:11 48.59659 16.67447 5383 ft 217 kts 289°
2026-05-06 20:11 48.60234 16.65343 5208 ft 216 kts 286°
2026-05-06 20:12 48.60650 16.63181 5068 ft 210 kts 268°
2026-05-06 20:12 48.60308 16.61084 4984 ft 206 kts 241°
2026-05-06 20:12 48.59586 16.59255 4979 ft 196 kts 236°
2026-05-06 20:12 48.58860 16.57594 4975 ft 184 kts 236°
2026-05-06 20:13 48.58154 16.56007 4981 ft 181 kts 235°
2026-05-06 20:13 48.57456 16.54435 4982 ft 180 kts 236°
2026-05-06 20:13 48.56755 16.52867 4987 ft 180 kts 236°
2026-05-06 20:13 48.56054 16.51328 4983 ft 180 kts 236°
2026-05-06 20:14 48.55193 16.49970 4982 ft 181 kts 213°
2026-05-06 20:14 48.54063 16.49094 4983 ft 183 kts 207°
2026-05-06 20:14 48.52893 16.48333 4982 ft 184 kts 206°
2026-05-06 20:14 48.51707 16.47587 4983 ft 184 kts 205°
2026-05-06 20:15 48.50524 16.46845 4982 ft 184 kts 205°
2026-05-06 20:15 48.49338 16.46101 4979 ft 185 kts 205°
2026-05-06 20:15 48.48150 16.45359 4983 ft 186 kts 205°
2026-05-06 20:15 48.46957 16.44606 4981 ft 186 kts 205°
2026-05-06 20:16 48.45739 16.43937 4982 ft 187 kts 193°
2026-05-06 20:16 48.44423 16.43985 4984 ft 194 kts 170°
2026-05-06 20:16 48.43116 16.44540 4989 ft 195 kts 168°
2026-05-06 20:16 48.41813 16.45105 4984 ft 195 kts 168°
2026-05-06 20:17 48.40506 16.45667 4991 ft 195 kts 169°
2026-05-06 20:17 48.39194 16.46229 4989 ft 196 kts 169°
2026-05-06 20:17 48.37878 16.46792 4989 ft 196 kts 169°
2026-05-06 20:17 48.36571 16.47352 4994 ft 196 kts 169°
2026-05-06 20:18 48.35263 16.47911 4994 ft 195 kts 169°
2026-05-06 20:18 48.33948 16.48472 4934 ft 196 kts 169°
2026-05-06 20:18 48.32646 16.49029 4739 ft 194 kts 169°
2026-05-06 20:18 48.31366 16.49575 4508 ft 193 kts 169°
2026-05-06 20:19 48.30079 16.50125 4252 ft 191 kts 169°
2026-05-06 20:19 48.28801 16.50669 3993 ft 189 kts 169°
2026-05-06 20:19 48.27539 16.51207 3754 ft 187 kts 169°
2026-05-06 20:19 48.26294 16.51738 3516 ft 186 kts 169°
2026-05-06 20:20 48.25052 16.52266 3270 ft 184 kts 169°
2026-05-06 20:20 48.23837 16.52784 3052 ft 179 kts 169°
2026-05-06 20:20 48.22662 16.53284 2806 ft 173 kts 169°
2026-05-06 20:20 48.21528 16.53766 2576 ft 168 kts 169°
2026-05-06 20:21 48.20359 16.54259 2344 ft 180 kts 168°
2026-05-06 20:21 48.19208 16.54751 2108 ft 163 kts 168°
2026-05-06 20:21 48.18175 16.55193 1902 ft 147 kts 169°
2026-05-06 20:21 48.17229 16.55594 1711 ft 135 kts 168°
2026-05-06 20:22 48.16355 16.55964 1542 ft 127 kts 168°
2026-05-06 20:22 48.15511 16.56322 1395 ft 125 kts 166°
2026-05-06 20:22 48.14673 16.56676 1207 ft 126 kts 165°
2026-05-06 20:22 48.13834 16.57029 1036 ft 125 kts 164°
2026-05-06 20:23 48.12981 16.57392 846 ft 127 kts 164°
2026-05-06 20:23 48.12146 16.57746 681 ft 126 kts 163°
2026-05-06 20:23 48.11582 16.57990 628 ft 120 kts 163°
2026-05-06 20:23 48.10749 16.58341 613 ft 63 kts 165°
2026-05-06 20:24 48.10456 16.58457 617 ft 23 kts 172°
2026-05-06 20:24 48.10299 16.58459 621 ft 22 kts 188°
2026-05-06 20:24 48.10165 16.58412 616 ft 12 kts 199°
2026-05-06 20:24 48.10108 16.58341 620 ft 11 kts 241°
2026-05-06 20:25 48.10092 16.58251 610 ft 8 kts 265°
2026-05-06 20:25 48.10123 16.58186 612 ft 9 kts 333°
2026-05-06 20:25 48.10192 16.58154 615 ft 12 kts 344°
2026-05-06 20:25 48.10277 16.58118 621 ft 14 kts 343°
2026-05-06 20:26 48.10377 16.58076 614 ft 16 kts 345°
2026-05-06 20:26 48.10489 16.58029 616 ft 18 kts 345°
2026-05-06 20:26 48.10540 16.58007 614 ft 6 kts 342°
2026-05-06 20:26 48.10590 16.57986 616 ft 9 kts 345°
2026-05-06 20:27 48.10657 16.57957 618 ft 11 kts 343°
2026-05-06 20:27 48.10740 16.57921 620 ft 14 kts 344°
2026-05-06 20:27 48.10829 16.57884 621 ft 13 kts 345°
2026-05-06 20:27 48.10922 16.57846 617 ft 14 kts 344°
2026-05-06 20:28 48.11016 16.57800 611 ft 11 kts 333°
2026-05-06 20:28 48.11065 16.57712 611 ft 12 kts 297°
2026-05-06 20:28 48.11106 16.57590 624 ft 14 kts 296°
2026-05-06 20:28 48.11151 16.57450 618 ft 15 kts 296°
2026-05-06 20:29 48.11199 16.57305 614 ft 16 kts 295°
2026-05-06 20:29 48.11247 16.57155 617 ft 16 kts 296°
2026-05-06 20:29 48.11298 16.57001 620 ft 17 kts 295°
2026-05-06 20:29 48.11349 16.56843 614 ft 17 kts 296°
2026-05-06 20:30 48.11402 16.56681 619 ft 18 kts 295°
2026-05-06 20:30 48.11513 16.56341 611 ft 19 kts 295°
2026-05-06 20:30 48.11571 16.56165 614 ft 19 kts 296°
2026-05-06 20:31 48.11625 16.56000 616 ft 11 kts 299°
2026-05-06 20:31 48.11678 16.55984 620 ft 8 kts 20°
2026-05-06 20:31 48.11724 16.55974 619 ft 5 kts 349°
2026-05-06 20:31 48.11757 16.56000 618 ft 5 kts 42°
2026-05-06 20:32 48.11765 16.56010 617 ft 2 kts 37°
2026-05-06 20:32 48.11779 16.56026 614 ft 3 kts 38°
2026-05-06 20:32 48.11787 16.56036 615 ft 0 kts 38°